Location: Austin
(30.3000°N, 97.7500°W)
Time: 04:13:17
(UTC-05:00)

Cosmos 1626 - Pass Details

Date: 18 March 2023
Orbit: 465 x 468 km, 82.5° (Epoch: 01 April)

Event Time Altitude Azimuth Distance (km) Brightness Sun altitude
Rises 21:43:03 0° 345° (NNW) 2,506 6.1 -26.8°
Reaches altitude 10° 21:45:13 10° 338° (NNW) 1,625 5.2 -27.3°
Enters shadow 21:46:50 23° 324° (NW) 1,025 4.2 -27.6°
